This demonstration page uses our WeatherBlox Daily Observations layout. Learn more.

Left ArrowRight Arrow

Hourly Observations for June 29, 2021

Temp ( °F °C ) Dew Point ( °F °C ) Humidity (%) Winds ( mph kmh ) Pressure ( in mb ) Visibility ( mi km ) Precip ( " mm )
12:56 am 00:56 Clear 62 16.7 60 15.6 93 93 Calm 30.13 1020 10 16 0.00 0.00
1:56 am 01:56 Clear 61 16.1 59 15 93 93 NNE 3 6 30.12 1020 10 16 0.00 0.00
2:56 am 02:56 Clear 61 16.1 59 15 93 93 NW 6 9 30.12 1020 10 16 0.00 0.00
3:56 am 03:56 Clear 60 15.6 58 14.4 93 93 WNW 5 7 30.11 1020 10 16 0.00 0.00
4:56 am 04:56 Clear 60 15.6 58 14.4 93 93 NW 7 11 30.12 1020 10 16 0.00 0.00
5:56 am 05:56 Clear 59 15 57 13.9 93 93 NW 8 13 30.13 1020 10 16 0.00 0.00
6:56 am 06:56 Sunny 59 15 57 13.9 93 93 NW 6 9 30.14 1021 10 16 0.00 0.00
7:56 am 07:56 Sunny 62 16.7 58 14.4 86 86 NNW 7 11 30.16 1021 10 16 0.00 0.00
8:56 am 08:56 Sunny 66 18.9 61 16.1 84 84 N 5 7 30.17 1022 10 16 0.00 0.00
9:56 am 09:56 Sunny 69 20.6 63 17.2 81 81 N 5 7 30.18 1022 9 14 0.00 0.00
10:56 am 10:56 Sunny 72 22.2 61 16.1 68 68 Calm 30.17 1022 10 16 0.03 0.76
11:56 am 11:56 Sunny 74 23.3 61 16.1 64 64 Calm 30.17 1022 10 16 0.00 0.00
12:56 pm 12:56 Sunny 77 25 62 16.7 60 60 ESE 7 11 30.17 1022 10 16 0.00 0.00
1:56 pm 13:56 Sunny 78 25.6 62 16.7 58 58 VRB 5 7 30.16 1021 10 16 0.00 0.00
2:56 pm 14:56 Partly Cloudy with Light Rain 80 26.7 64 17.8 58 58 E 7 11 30.15 1021 10 16 0.00 0.00
3:56 pm 15:56 Sunny 81 27.2 63 17.2 54 54 SSE 7 11 30.14 1021 10 16 0.00 0.00
4:56 pm 16:56 Sunny 81 27.2 62 16.7 53 53 ESE 8 13 30.13 1020 10 16 0.00 0.00
5:56 pm 17:56 Sunny 80 26.7 62 16.7 54 54 ESE 6 9 30.13 1020 10 16 0.00 0.00
6:56 pm 18:56 Sunny 79 26.1 63 17.2 58 58 ESE 5 7 30.12 1020 10 16 0.00 0.00
7:56 pm 19:56 Sunny 78 25.6 65 18.3 64 64 E 5 7 30.12 1020 10 16 0.00 0.00
8:56 pm 20:56 Sunny 74 23.3 67 19.4 79 79 E 5 7 30.13 1020 10 16 0.00 0.00
9:56 pm 21:56 Clear 71 21.7 65 18.3 81 81 SE 6 9 30.14 1021 10 16 0.00 0.00
10:56 pm 22:56 Clear 70 21.1 64 17.8 82 82 ESE 6 9 30.16 1021 10 16 0.00 0.00
11:56 pm 23:56 Clear 68 20 64 17.8 87 87 E 3 6 30.16 1021 10 16 0.00 0.00

Powered by AerisWeather